GW5123 Weather Reports


time (UTC)temp
F
wind
direction
speed
knots
gust
knots
rain 1hr
in
rain 24hr
in
rain mn
in
humidity
%
barometer
mb
20260510104413 46 279 0.0 0.0 0.00 0.00 0.00 99 1013.8
20260510103909 45 256 0.0 0.0 0.00 0.00 0.00 99 1013.9
20260510103407 45 273 0.0 0.0 0.00 0.00 0.00 99 1013.8
20260510102902 45 260 0.0 0.0 0.00 0.00 0.00 99 1013.8
20260510102358 45 259 0.0 0.0 0.00 0.00 0.00 99 1013.9
20260510101856 46 258 0.0 0.0 0.00 0.00 0.00 99 1013.7
20260510101354 46 293 0.0 0.0 0.00 0.00 0.00 99 1013.6
20260510100850 46 268 0.0 0.0 0.00 0.00 0.00 99 1013.5
20260510100347 46 279 0.0 0.0 0.00 0.00 0.00 99 1013.4
20260510095844 46 305 0.0 0.0 0.00 0.00 0.00 99 1013.4
20260510095338 46 279 0.0 0.0 0.00 0.00 0.00 99 1013.3
20260510094838 46 265 0.0 0.0 0.00 0.00 0.00 99 1013.3
20260510094334 46 265 0.0 0.0 0.00 0.00 0.00 99 1013.3
20260510093830 46 257 0.0 0.0 0.00 0.00 0.00 99 1013.3
20260510093326 46 262 0.0 0.0 0.00 0.00 0.00 99 1013.4
20260510092822 45 268 0.0 0.0 0.00 0.00 0.00 99 1013.3
20260510092318 45 269 0.0 0.0 0.00 0.00 0.00 99 1013.2
20260510091814 45 266 0.0 0.0 0.00 0.00 0.00 99 1013.1
20260510091312 46 258 0.0 0.0 0.00 0.00 0.00 99 1013.1
20260510090808 45 258 0.0 0.9 0.00 0.00 0.00 99 1013.1
20260510090305 44 290 0.0 0.0 0.00 0.00 0.00 99 1013.0
20260510085801 45 325 0.0 0.0 0.00 0.00 0.00 99 1013.0
20260510085301 44 290 0.0 0.0 0.00 0.00 0.00 99 1013.0
20260510084757 45 267 0.9 0.9 0.00 0.00 0.00 99 1013.1
20260510084254 44 18 0.0 0.9 0.00 0.00 0.00 99 1013.1
20260510083750 45 271 0.9 1.7 0.00 0.00 0.00 99 1012.9
20260510083248 44 263 0.0 0.9 0.00 0.00 0.00 98 1012.9
20260510082743 45 2 0.0 0.0 0.00 0.00 0.00 99 1013.0
20260510082240 45 281 0.0 0.0 0.00 0.00 0.00 98 1013.1
20260510081739 45 8 0.0 0.0 0.00 0.00 0.00 98 1013.1
20260510081235 45 266 0.0 0.0 0.00 0.00 0.00 98 1013.0
20260510080730 45 260 0.0 0.0 0.00 0.00 0.00 99 1012.8
20260510080226 46 307 0.0 0.0 0.00 0.00 0.00 98 1012.9
20260510075723 45 303 0.0 0.0 0.00 0.00 0.00 98 1012.7
20260510075221 46 264 0.0 0.0 0.00 0.00 0.00 98 1012.7
20260510074718 46 350 0.0 0.0 0.00 0.00 0.00 98 1012.5
20260510074214 45 292 0.0 0.0 0.00 0.00 0.00 98 1012.7
20260510073711 45 306 0.0 0.0 0.00 0.00 0.00 97 1012.7
20260510073206 46 315 0.0 0.0 0.00 0.00 0.00 97 1012.7
20260510072703 46 309 0.0 0.0 0.00 0.00 0.00 97 1012.7
20260510072159 46 300 0.0 0.0 0.00 0.00 0.00 97 1012.5
20260510071656 47 266 0.0 0.0 0.00 0.00 0.00 96 1012.7
20260510071153 47 303 0.0 0.0 0.00 0.00 0.00 97 1012.8
20260510070650 46 317 0.0 0.0 0.00 0.00 0.00 97 1012.5
20260510070148 47 264 0.0 0.0 0.00 0.00 0.00 97 1012.5
20260510065643 47 267 0.0 0.0 0.00 0.00 0.00 96 1012.7
20260510065139 47 265 0.0 0.0 0.00 0.00 0.00 96 1012.5
20260510064636 47 265 0.0 0.0 0.00 0.00 0.00 96 1012.5
20260510064133 47 282 0.0 0.0 0.00 0.00 0.00 95 1012.8
20260510063630 47 276 0.0 0.0 0.00 0.00 0.00 96 1012.5
20260510063126 47 270 0.0 0.0 0.00 0.00 0.00 96 1012.5
20260510062622 47 295 0.0 0.0 0.00 0.00 0.00 96 1012.7
20260510062118 47 298 0.0 0.0 0.00 0.00 0.00 95 1012.7
20260510061614 47 293 0.0 0.0 0.00 0.00 0.00 95 1012.7
20260510061112 47 300 0.0 0.0 0.00 0.00 0.00 95 1012.7
20260510060608 47 328 0.0 0.0 0.00 0.00 0.00 95 1012.5
20260510060104 48 308 0.0 0.0 0.00 0.00 0.00 95 1012.7
20260510055600 48 286 0.0 0.0 0.00 0.00 0.00 95 1012.8
20260510055059 48 301 0.0 0.0 0.00 0.00 0.00 95 1012.7
20260510054554 48 289 0.0 0.0 0.00 0.00 0.00 95 1012.7
20260510054049 48 290 0.0 0.0 0.00 0.00 0.00 95 1012.5
20260510053549 47 279 0.0 0.0 0.00 0.00 0.00 95 1012.7
20260510053046 48 23 0.0 0.0 0.00 0.00 0.00 95 1012.7
20260510052542 48 254 0.0 0.0 0.00 0.00 0.00 94 1012.5
20260510052038 48 235 0.0 0.0 0.00 0.00 0.00 95 1012.9
20260510051534 48 263 0.0 0.0 0.00 0.00 0.00 94 1013.2
20260510051031 48 263 0.0 0.0 0.00 0.00 0.00 94 1013.0
20260510050528 48 271 0.0 0.0 0.00 0.00 0.00 93 1012.9
20260510050026 48 269 0.0 0.0 0.00 0.00 0.00 93 1013.1
20260510045523 48 260 0.0 0.0 0.00 0.00 0.00 94 1013.1
20260510045018 48 282 0.0 0.0 0.00 0.00 0.00 93 1013.3
20260510044515 48 282 0.0 0.0 0.00 0.00 0.00 93 1013.1
20260510044013 48 302 0.0 0.0 0.00 0.00 0.00 93 1013.0
20260510043514 49 252 0.0 0.0 0.00 0.00 0.00 92 1013.1
20260510043009 49 263 0.0 0.0 0.00 0.00 0.00 92 1013.0
20260510042503 48 274 0.0 0.0 0.00 0.00 0.00 92 1013.0
20260510041958 49 306 0.0 0.0 0.00 0.00 0.00 92 1013.0
20260510041456 48 277 0.0 0.0 0.00 0.00 0.00 93 1013.1
20260510040954 48 260 0.0 0.0 0.00 0.00 0.00 92 1013.1
20260510040450 49 256 0.0 0.0 0.00 0.00 0.00 92 1012.8
20260510035946 49 168 0.0 0.0 0.00 0.00 0.00 90 1012.7
20260510035442 49 105 0.0 0.0 0.00 0.00 0.00 90 1012.8
20260510034942 49 53 0.0 0.0 0.00 0.00 0.00 90 1012.5
20260510034441 49 287 0.0 0.0 0.00 0.00 0.00 90 1012.5
20260510033937 49 325 0.0 0.0 0.00 0.00 0.00 90 1012.7
20260510033433 49 323 0.0 0.0 0.00 0.00 0.00 90 1012.3
20260510032931 50 278 0.0 0.0 0.00 0.00 0.00 89 1012.5
20260510032428 50 310 0.0 0.0 0.00 0.00 0.00 88 1012.3
20260510031928 50 284 0.0 0.0 0.00 0.00 0.00 87 1012.5
20260510031423 51 306 0.0 0.0 0.00 0.00 0.00 87 1012.7
20260510030919 51 275 0.0 0.0 0.00 0.00 0.00 86 1012.4
20260510030415 51 281 0.0 0.0 0.00 0.00 0.00 87 1012.2
20260510025913 51 291 0.0 0.0 0.00 0.00 0.00 87 1012.3
20260510025410 51 298 0.0 0.0 0.00 0.00 0.00 86 1012.3
20260510024907 51 308 0.0 0.0 0.00 0.00 0.00 86 1012.3
20260510024403 51 261 0.0 0.0 0.00 0.00 0.00 86 1012.3
20260510023859 51 304 0.0 0.0 0.00 0.00 0.00 85 1012.3
20260510023356 51 267 0.0 0.0 0.00 0.00 0.00 85 1012.2
20260510022853 51 268 0.0 0.0 0.00 0.00 0.00 84 1012.2
20260510022352 52 279 0.0 0.0 0.00 0.00 0.00 84 1012.2
20260510021851 52 299 0.0 0.0 0.00 0.00 0.00 84 1012.1
20260510021350 52 277 0.0 0.0 0.00 0.00 0.00 83 1012.2
20260510020846 52 303 0.0 0.0 0.00 0.00 0.00 82 1012.1
20260510020346 53 285 0.0 0.0 0.00 0.00 0.00 82 1012.2
20260510015842 53 294 0.0 0.0 0.00 0.00 0.00 81 1012.0
20260510015338 53 267 0.0 0.0 0.00 0.00 0.00 80 1011.9
20260510014833 53 280 0.0 0.0 0.00 0.00 0.00 80 1011.8
20260510014331 54 245 0.0 0.0 0.00 0.00 0.00 79 1011.6
20260510013827 54 252 0.0 0.0 0.00 0.00 0.00 78 1011.4
20260510013322 55 231 0.0 0.0 0.00 0.00 0.00 76 1011.4
20260510012818 55 222 0.0 0.0 0.00 0.00 0.00 76 1011.3
20260510012317 56 227 0.0 0.0 0.00 0.00 0.00 74 1011.3
20260510011812 56 28 0.0 0.0 0.00 0.00 0.00 73 1011.3
20260510011308 56 243 0.0 0.0 0.00 0.00 0.00 73 1011.0
20260510010805 56 206 0.0 0.9 0.00 0.00 0.00 72 1011.0
20260510010302 57 191 0.0 0.0 0.00 0.00 0.00 72 1011.2
20260509145943 58 247 0.0 1.7 0.00 0.00 0.00 67 1010.4
20260509145442 58 247 0.0 1.7 0.00 0.00 0.00 67 1010.4
20260509144938 58 247 0.0 1.7 0.00 0.00 0.00 67 1010.4
20260509144435 58 26 2.6 2.6 0.00 0.00 0.00 66 1010.5
20260509143932 58 117 1.7 3.5 0.00 0.00 0.00 65 1010.5
20260509142920 58 88 0.9 1.7 0.00 0.00 0.00 66 1010.3
20260509142417 58 88 0.9 1.7 0.00 0.00 0.00 66 1010.3
20260509141912 58 358 2.6 5.2 0.00 0.00 0.00 63 1010.1
20260509141410 58 8 3.5 8.7 0.00 0.00 0.00 64 1010.2
20260509140906 58 118 4.3 5.2 0.00 0.00 0.00 63 1010.2
20260509140403 58 105 3.5 3.5 0.00 0.00 0.00 63 1010.1
20260509135901 59 24 2.6 7.8 0.00 0.00 0.00 60 1009.9
20260509135358 60 91 2.6 5.2 0.00 0.00 0.00 61 1010.0
20260509134855 60 68 1.7 2.6 0.00 0.00 0.00 62 1009.8
20260509134353 60 92 1.7 5.2 0.00 0.00 0.00 61 1010.0
20260509133849 59 78 0.9 2.6 0.00 0.00 0.00 60 1009.8
20260509133346 59 341 0.9 7.8 0.00 0.00 0.00 60 1010.0
20260509132845 59 353 0.9 5.2 0.00 0.00 0.00 63 1009.9
20260509132343 60 340 1.7 1.7 0.00 0.00 0.00 62 1009.8
20260509131839 59 44 1.7 5.2 0.00 0.00 0.00 60 1010.0
20260509131336 59 66 2.6 6.1 0.00 0.00 0.00 60 1010.0
20260509130833 58 65 0.9 5.2 0.00 0.00 0.00 60 1010.2
20260509130328 58 8 3.5 6.1 0.00 0.00 0.00 60 1010.4
20260509125825 59 71 0.9 7.0 0.00 0.00 0.00 61 1010.2
20260509125321 58 38 0.9 6.1 0.00 0.00 0.00 60 1010.2
20260509124818 58 122 0.9 1.7 0.00 0.00 0.00 64 1010.3
20260509124314 58 279 0.0 2.6 0.00 0.00 0.00 62 1010.3
20260509123813 57 12 1.7 6.1 0.00 0.00 0.00 62 1010.2
20260509123310 57 196 0.0 3.5 0.00 0.00 0.00 68 1010.3
20260509122805 56 344 1.7 5.2 0.00 0.00 0.00 68 1010.5
20260509122305 55 181 0.0 1.7 0.00 0.00 0.00 72 1010.4
20260509121759 54 194 0.9 1.7 0.00 0.00 0.00 67 1010.3
20260509121256 53 247 0.0 0.0 0.00 0.00 0.00 73 1010.6
20260509120755 52 218 0.0 0.0 0.00 0.00 0.00 74 1010.5
20260509120252 51 257 0.0 0.0 0.00 0.00 0.00 77 1010.5
20260509115751 51 264 0.0 0.0 0.00 0.00 0.00 74 1010.5
20260509115247 51 246 0.0 0.0 0.00 0.00 0.00 73 1010.5
20260509114745 51 255 0.0 0.0 0.00 0.00 0.00 72 1010.4
20260509114244 51 207 0.0 0.0 0.00 0.00 0.00 73 1010.5
20260509113742 50 275 0.0 0.0 0.00 0.00 0.00 71 1010.3
20260509113239 51 275 0.9 2.6 0.00 0.00 0.00 71 1010.5
20260509112736 50 282 0.0 0.0 0.00 0.00 0.00 73 1010.4
20260509112233 49 252 0.0 0.0 0.00 0.00 0.00 74 1010.4
20260509111730 49 231 0.0 0.0 0.00 0.00 0.00 76 1010.3
20260509111226 48 207 0.0 0.0 0.00 0.00 0.00 76 1010.4
20260509110724 48 236 0.0 0.0 0.00 0.00 0.00 79 1010.5
20260509110220 47 295 0.0 0.0 0.00 0.00 0.00 78 1010.4
20260509105719 47 228 0.0 0.0 0.00 0.00 0.00 78 1010.5
20260509105216 47 266 0.0 0.0 0.00 0.00 0.00 81 1010.4
20260509104713 47 256 0.0 0.0 0.00 0.00 0.00 78 1010.5